Hoquiam, WA
on Saturday, December 22, 2012

Saturday
Previous Day Next Day
Daily Summary
 ActualAverageRecord
Temperature
Mean Temperature °F 41°F  
Max Temperature 45°F 46°F 54°F (1963)
Min Temperature 39°F 37°F 14°F (1983)
Degree Days
Heating Degree Days 23 24  
Month to date heating degree days 515  
Cooling Degree Days 0 0  
Month to date cooling degree days 0  
Year to date cooling degree days 23  
Moisture
Dew Point 39°F   
Average Humidity 87    
Maximum Humidity 93    
Minimum Humidity 80    
Precipitation
Precipitation 0.28 in 0.32 in 1.74 in (1969)
Month to date precipitation 7.06  
Year to date precipitation 64.65  
Wind
Wind Speed 13 mph   
Max Wind Speed 20 mph   
Max Gust Speed 26 mph   
Visibility 9 miles   
Events Rain   

Key: T is trace of precipitation, MM is missing value
Source: NWS Daily Summary
Time(PST)TemperatureDew PointHumidity Pressure Visibility Wind DirectionWind SpeedGust SpeedPrecipitationEvents Conditions
12:53 AM 42.1°F 39.0°F 89% 29.60 in 10.0 miles ENE 11.5 mph - N/A   Overcast
1:53 AM 42.1°F 39.0°F 89% 29.57 in 10.0 miles NE 12.7 mph - N/A   Overcast
2:53 AM 42.1°F 39.0°F 89% 29.55 in 10.0 miles ENE 12.7 mph - N/A   Partly Cloudy
3:53 AM 42.1°F 39.0°F 89% 29.53 in 10.0 miles NE 12.7 mph - 0.00 in Rain Light Rain
4:53 AM 42.1°F 39.0°F 89% 29.51 in 10.0 miles ENE 9.2 mph - N/A   Overcast
5:53 AM 41.0°F 39.0°F 93% 29.49 in 10.0 miles ENE 10.4 mph - 0.01 in   Overcast
6:53 AM 41.0°F 39.0°F 93% 29.48 in 10.0 miles East 13.8 mph - 0.00 in   Mostly Cloudy
7:53 AM 41.0°F 39.0°F 93% 29.47 in 10.0 miles ENE 9.2 mph - 0.00 in   Mostly Cloudy
8:53 AM 41.0°F 37.9°F 89% 29.48 in 10.0 miles ENE 9.2 mph - N/A   Clear
9:53 AM 44.1°F 39.9°F 85% 29.49 in 10.0 miles ENE 11.5 mph - N/A   Mostly Cloudy
10:53 AM 44.1°F 39.9°F 85% 29.48 in 10.0 miles ENE 10.4 mph - N/A   Mostly Cloudy
11:53 AM 45.0°F 39.0°F 80% 29.49 in 8.0 miles SE 11.5 mph - 0.03 in Rain Light Rain
12:02 PM 44.6°F 39.2°F 81% 29.48 in 5.0 miles SE 16.1 mph 25.3 mph 0.01 in Rain Light Rain
12:49 PM 44.6°F 39.2°F 81% 29.48 in 7.0 miles ESE 18.4 mph 25.3 mph N/A Rain Light Rain
12:53 PM 44.1°F 39.0°F 82% 29.49 in 7.0 miles ESE 19.6 mph 25.3 mph 0.03 in Rain Light Rain
1:53 PM 43.0°F 39.0°F 86% 29.50 in 10.0 miles East 13.8 mph - 0.03 in   Overcast
2:10 PM 42.8°F 39.2°F 87% 29.50 in 3.0 miles SE 17.3 mph - 0.02 in Rain Light Rain
2:53 PM 43.0°F 39.9°F 89% 29.52 in 6.0 miles SSE 18.4 mph 25.3 mph 0.06 in Rain Light Rain
3:08 PM 42.8°F 41.0°F 93% 29.51 in 9.0 miles SSE 12.7 mph 18.4 mph 0.02 in Rain Light Rain
3:16 PM 44.6°F 39.2°F 81% 29.51 in 10.0 miles SSE 15.0 mph 21.9 mph 0.02 in Rain Light Rain
3:40 PM 44.6°F 41.0°F 87% 29.53 in 10.0 miles South 11.5 mph - 0.03 in   Overcast
3:53 PM 45.0°F 41.0°F 86% 29.55 in 10.0 miles SSE 15.0 mph - 0.03 in   Overcast
4:53 PM 45.0°F 39.9°F 82% 29.57 in 10.0 miles South 11.5 mph - 0.02 in   Scattered Clouds
5:53 PM 44.1°F 39.0°F 82% 29.60 in 10.0 miles East 6.9 mph - N/A   Clear
6:53 PM 42.1°F 39.0°F 89% 29.62 in 10.0 miles ESE 12.7 mph - 0.01 in Rain Light Rain
7:04 PM 42.8°F 39.2°F 87% 29.61 in 10.0 miles East 16.1 mph - 0.00 in Rain Light Rain
7:21 PM 42.8°F 39.2°F 87% 29.62 in 9.0 miles ESE 15.0 mph - 0.01 in Rain Light Rain
7:53 PM 41.0°F 37.9°F 89% 29.65 in 9.0 miles ESE 13.8 mph 26.5 mph 0.01 in Rain Light Rain
8:53 PM 41.0°F 37.9°F 89% 29.66 in 10.0 miles East 13.8 mph - 0.04 in Rain Light Rain
9:53 PM 41.0°F 37.9°F 89% 29.68 in 10.0 miles East 12.7 mph - 0.00 in   Overcast
10:53 PM 39.9°F 37.9°F 93% 29.68 in 10.0 miles ENE 10.4 mph - N/A   Partly Cloudy
11:53 PM 41.0°F 37.9°F 89% 29.70 in 10.0 miles East 12.7 mph - 0.01 in   Overcast
Moon Phase
Dec. 22 Dec. 28 Jan. 04 Jan. 11 Jan. 18
Sunrise:07:59 AM (PST) Moon Rise:01:01 PM (PST)12/22
Sunset:04:30 PM (PST) Moon Set:02:38 AM (PST)12/22

Copyright © 2014 The Weather Underground, Inc.